Weather reports worldwide

Advertisment
Twenthe, Netherlands (6290): temperature & dewpoint: 09.08.2020 21:00:00 - 15.08.2020 21:00:00 (CEST)Twenthe, Netherlands (6290): temperature 5cm: 09.08.2020 21:00:00 - 15.08.2020 21:00:00 (CEST)Twenthe, Netherlands (6290): wind speed & gusts: 09.08.2020 21:00:00 - 15.08.2020 21:00:00 (CEST)Twenthe, Netherlands (6290): wind direction: 09.08.2020 21:00:00 - 15.08.2020 21:00:00 (CEST)Twenthe, Netherlands (6290): reduced air pressure: 09.08.2020 21:00:00 - 15.08.2020 21:00:00 (CEST)Twenthe, Netherlands (6290): visibility: 09.08.2020 21:00:00 - 15.08.2020 21:00:00 (CEST)Twenthe, Netherlands (6290): precipitation: 09.08.2020 21:00:00 - 15.08.2020 21:00:00 (CEST)
Date & Time tt [°C] td [°C] tt 5cm [°C] ff [km/h] ff [kn] fx [km/h] fx [kn] dd ppp [hPa] vv [km] rr [mm]
15.08.2020 21:00:00 21,2 18,8 19,4 4 2 11 6 ENE 1014,3 43 0,0
15.08.2020 20:00:00 23,6 18,6 23,3 4 2 14 8 ENE 1014,5 49 0,0
15.08.2020 19:00:00 24,6 19,0 25,0 7 4 14 8 ENE 1014,0 29 0,0
15.08.2020 18:00:00 25,2 18,7 25,9 7 4 14 8 ESE 1014,3 24 0,0
15.08.2020 17:00:00 26,0 18,5 27,5 4 2 14 8 E 1014,0 21 0,0
15.08.2020 16:00:00 25,2 19,3 26,4 7 4 11 6 E 1014,5 18 0,0
15.08.2020 15:00:00 25,0 19,7 27,0 4 2 18 10 SE 1014,7 14 0,0
15.08.2020 14:00:00 23,9 19,9 25,0 11 6 22 12 E 1015,3 11 0,0
15.08.2020 13:00:00 24,9 18,6 26,0 11 6 14 8 ENE 1015,3 12 0,0
15.08.2020 12:00:00 25,7 19,3 28,0 4 2 14 8 NE 1015,2 8 0,0
15.08.2020 11:00:00 23,2 19,7 26,0 7 4 14 8 WSW 1015,1 6 0,0
15.08.2020 10:00:00 20,6 19,6 21,3 4 2 11 6 WSW 1015,1 2,8 0,0
15.08.2020 09:00:00 19,6 19,3 19,9 7 4 14 8 SSW 1014,9 1,9 0,0
15.08.2020 08:00:00 18,9 18,8 19,0 4 2 7 4 S 1014,5 3,3 0,0
15.08.2020 07:00:00 17,1 16,9 15,0 4 2 4 2 ESE 1014,3 0,5 0,0
15.08.2020 06:00:00 16,1 15,9 14,5 4 2 4 2 SSW 1013,7 0,2 0,0
15.08.2020 05:00:00 17,5 17,5 15,2 4 2 4 2 S 1013,6 4,9 0,0
15.08.2020 04:00:00 19,0 18,4 16,8 4 2 7 4 E 1013,8 18 0,0
15.08.2020 03:00:00 20,2 18,3 19,4 7 4 14 8 S 1013,7 36 0,0
15.08.2020 02:00:00 20,5 18,2 19,7 7 4 14 8 S 1013,7 46 0,0
15.08.2020 01:00:00 21,2 18,2 20,5 7 4 14 8 SE 1013,8 50 0,0
15.08.2020 00:00:00 21,8 18,4 21,0 11 6 14 8 SSE 1013,9 47 0,0
14.08.2020 23:00:00 21,9 17,9 20,6 7 4 11 6 ESE 1013,7 49 0,0
14.08.2020 22:00:00 22,4 17,6 21,2 7 4 11 6 E 1013,4 50 0,0
14.08.2020 21:00:00 23,0 17,0 21,6 4 2 14 8 SE 1013,0 50 0,0
14.08.2020 20:00:00 24,5 18,5 24,2 11 6 18 10 ENE 1012,4 48 0,0
14.08.2020 19:00:00 25,3 18,6 25,7 18 10 25 14 NE 1012,1 47 0,0
14.08.2020 18:00:00 28,4 16,7 29,1 11 6 25 14 WSW 1011,9 49 0,0
14.08.2020 17:00:00 29,3 16,6 32,4 11 6 29 16 WSW 1011,9 44 0,0
14.08.2020 16:00:00 29,1 17,3 31,5 14 8 25 14 WSW 1011,8 29 0,0
14.08.2020 15:00:00 29,2 18,8 29,9 14 8 22 12 SSW 1012,0 21 0,0
14.08.2020 14:00:00 28,1 19,4 31,2 11 6 22 12 S 1012,5 18 0,0
14.08.2020 13:00:00 27,0 18,7 29,6 11 6 22 12 S 1012,6 31 0,0
14.08.2020 12:00:00 26,5 19,3 29,2 11 6 18 10 SSE 1012,7 22 0,0
14.08.2020 11:00:00 25,4 19,9 27,3 7 4 11 6 SE 1012,8 12 0,0
14.08.2020 10:00:00 23,2 20,4 24,6 7 4 14 8 ENE 1012,6 8 0,0
14.08.2020 09:00:00 21,1 19,8 21,7 7 4 11 6 ENE 1012,8 7 0,0
14.08.2020 08:00:00 19,7 19,3 19,6 4 2 11 6 E 1012,1 4,3 0,0
14.08.2020 07:00:00 19,2 19,1 18,9 4 2 18 10 SSW 1012,0 2,7 3,0
14.08.2020 06:00:00 17,7 17,4 16,5 7 4 14 8 N 1012,2 1,7 0,0
14.08.2020 05:00:00 18,2 17,9 15,5 0 0 7 4 N 1011,8 0,1 0,0
14.08.2020 04:00:00 18,8 18,6 17,0 4 2 11 6 W 1012,0 3,8 0,0
14.08.2020 03:00:00 18,4 18,2 17,1 7 4 14 8 S 1012,1 2,4 0,0
14.08.2020 02:00:00 19,8 19,3 19,3 11 6 18 10 SSE 1012,3 8 0,0
14.08.2020 01:00:00 19,9 19,7 19,3 4 2 7 4 SSE 1012,2 5 0,0
14.08.2020 00:00:00 20,4 20,0 20,1 7 4 14 8 S 1012,0 10 1,0
13.08.2020 23:00:00 20,7 19,9 20,5 11 6 22 12 N 1011,8 12 1,0
13.08.2020 22:00:00 21,6 19,5 21,1 14 8 40 21 SSW 1012,5 19 0,1
13.08.2020 21:00:00 23,1 18,4 22,8 29 16 40 21 S 1011,7 40 0,0
13.08.2020 20:00:00 28,4 17,7 27,5 4 2 14 8 E 1010,6 49 0,0
13.08.2020 19:00:00 30,2 16,9 30,5 7 4 18 10 E 1010,5 43 0,0
13.08.2020 18:00:00 31,2 15,9 32,6 11 6 22 12 ESE 1010,6 41 0,0
13.08.2020 17:00:00 31,4 17,2 33,3 11 6 18 10 E 1011,1 29 0,0
13.08.2020 16:00:00 31,4 16,3 34,7 11 6 18 10 SE 1011,4 41 0,0
13.08.2020 15:00:00 31,4 16,4 35,1 7 4 18 10 SE 1011,6 34 0,0
13.08.2020 14:00:00 30,6 16,4 34,7 7 4 22 12 SSE 1012,1 43 0,0
13.08.2020 13:00:00 29,5 17,6 32,5 7 4 18 10 E 1012,0 34 0,0
13.08.2020 12:00:00 27,7 17,8 30,4 7 4 14 8 ESE 1012,2 28 0,0
13.08.2020 11:00:00 27,2 17,9 30,5 7 4 14 8 NE 1012,0 25 0,0
13.08.2020 10:00:00 25,8 17,8 27,9 7 4 14 8 E 1012,2 37 0,0
13.08.2020 09:00:00 23,9 18,2 25,4 7 4 18 10 ESE 1012,3 29 0,0
13.08.2020 08:00:00 21,4 17,8 19,9 4 2 7 4 ESE 1012,4 29 0,0
13.08.2020 07:00:00 19,1 16,6 16,8 4 2 7 4 ENE 1012,4 39 0,0
13.08.2020 06:00:00 19,1 16,1 17,2 4 2 11 6 NE 1012,2 48 0,0
13.08.2020 05:00:00 20,9 16,0 19,2 7 4 14 8 E 1012,1 50 0,0
13.08.2020 04:00:00 21,1 16,2 19,5 7 4 14 8 SE 1012,3 50 0,0
13.08.2020 03:00:00 21,7 16,9 20,7 11 6 22 12 SE 1012,5 45 0,0
13.08.2020 02:00:00 22,3 16,9 21,3 14 8 22 12 ESE 1012,9 49 0,0
13.08.2020 01:00:00 22,4 16,9 19,6 11 6 14 8 E 1013,3 50 0,0
13.08.2020 00:00:00 23,1 16,8 19,8 4 2 11 6 ENE 1013,6 50 0,0
12.08.2020 23:00:00 23,7 16,6 22,0 7 4 14 8 ENE 1013,6 50 0,0
12.08.2020 22:00:00 25,5 15,9 22,2 7 4 14 8 E 1013,4 50 0,0
12.08.2020 21:00:00 27,4 15,4 25,7 7 4 18 10 E 1012,9 40 0,0
12.08.2020 20:00:00 29,7 15,2 29,3 11 6 25 14 ESE 1013,1 47 0,0
12.08.2020 19:00:00 31,1 15,9 31,4 11 6 25 14 ESE 1012,9 44 0,0
12.08.2020 18:00:00 32,3 14,8 34,5 11 6 25 14 ESE 1013,4 48 0,0
12.08.2020 17:00:00 33,0 14,7 35,5 14 8 32 18 ESE 1013,6 40 0,0
12.08.2020 16:00:00 33,1 15,0 35,9 18 10 32 18 SE 1014,0 37 0,0
12.08.2020 15:00:00 33,3 15,9 36,8 14 8 29 16 SE 1014,3 40 0,0
12.08.2020 14:00:00 32,5 15,9 35,9 14 8 29 16 SE 1014,7 35 0,0
12.08.2020 13:00:00 31,5 15,6 35,3 14 8 29 16 SE 1015,0 34 0,0
12.08.2020 12:00:00 29,8 16,4 33,7 11 6 18 10 E 1015,1 35 0,0
12.08.2020 11:00:00 28,8 16,5 31,8 11 6 22 12 SE 1015,4 39 0,0
12.08.2020 10:00:00 26,7 17,0 28,9 11 6 22 12 ESE 1015,4 39 0,0
12.08.2020 09:00:00 24,7 16,3 25,8 11 6 18 10 E 1015,3 38 0,0
12.08.2020 08:00:00 22,9 16,1 22,7 7 4 14 8 E 1015,5 36 0,0
12.08.2020 07:00:00 21,4 16,3 20,3 7 4 18 10 ENE 1015,4 36 0,0
12.08.2020 06:00:00 20,7 16,3 18,8 7 4 14 8 E 1015,4 36 0,0
12.08.2020 05:00:00 19,8 16,1 16,7 7 4 11 6 ENE 1015,3 38 0,0
12.08.2020 04:00:00 20,3 16,5 18,5 4 2 11 6 SW 1015,7 39 0,0
12.08.2020 03:00:00 24,0 16,6 21,6 4 2 11 6 ESE 1015,8 41 0,0
12.08.2020 02:00:00 25,1 16,6 23,5 11 6 18 10 E 1015,8 43 0,0
12.08.2020 01:00:00 25,7 16,5 23,9 11 6 18 10 E 1015,7 46 0,0
12.08.2020 00:00:00 26,8 16,4 25,7 11 6 18 10 E 1015,5 48 0,0
11.08.2020 23:00:00 27,1 16,5 25,6 11 6 18 10 E 1015,7 50 0,0
11.08.2020 22:00:00 28,0 16,7 26,8 11 6 18 10 E 1015,4 44 0,0
11.08.2020 21:00:00 28,7 17,2 27,2 7 4 18 10 E 1014,8 48 0,0
11.08.2020 20:00:00 30,0 17,3 28,9 7 4 18 10 E 1014,7 35 0,0
11.08.2020 19:00:00 31,4 17,0 31,2 11 6 22 12 E 1014,4 46 0,0
11.08.2020 18:00:00 32,8 16,2 33,4 14 8 29 16 ESE 1014,4 45 0,0
11.08.2020 17:00:00 34,0 15,1 37,1 14 8 29 16 E 1014,8 30 0,0
11.08.2020 16:00:00 34,1 15,2 37,3 18 10 32 18 E 1015,0 40 0,0
11.08.2020 15:00:00 33,1 15,4 35,8 18 10 36 19 E 1015,3 36 0,0
11.08.2020 14:00:00 32,7 16,0 36,3 22 12 32 18 E 1015,5 39 0,0
11.08.2020 13:00:00 32,1 16,7 34,8 18 10 36 19 E 1016,0 36 0,0
11.08.2020 12:00:00 30,7 17,0 33,3 18 10 29 16 ESE 1016,0 36 0,0
11.08.2020 11:00:00 28,5 17,3 31,3 14 8 29 16 E 1016,2 28 0,0
11.08.2020 10:00:00 26,3 17,7 27,9 11 6 29 16 E 1016,1 32 0,0
11.08.2020 09:00:00 24,1 17,0 25,5 11 6 22 12 ENE 1016,0 28 0,0
11.08.2020 08:00:00 22,1 16,7 22,0 14 8 25 14 ENE 1015,6 32 0,0
11.08.2020 07:00:00 20,7 16,3 19,9 14 8 22 12 ENE 1015,6 32 0,0
11.08.2020 06:00:00 20,6 15,8 19,3 11 6 22 12 ENE 1015,6 39 0,0
11.08.2020 05:00:00 19,9 15,4 17,9 11 6 14 8 NE 1015,6 43 0,0
11.08.2020 04:00:00 20,8 15,4 19,4 11 6 22 12 NE 1016,0 44 0,0
11.08.2020 03:00:00 21,7 15,6 19,6 14 8 22 12 NE 1015,8 48 0,0
11.08.2020 02:00:00 22,2 15,3 20,6 11 6 18 10 ENE 1016,1 48 0,0
11.08.2020 01:00:00 23,8 15,1 22,0 11 6 18 10 ENE 1016,0 50 0,0
11.08.2020 00:00:00 24,4 14,9 22,1 11 6 14 8 ENE 1015,8 50 0,0
10.08.2020 23:00:00 25,4 14,6 22,4 7 4 18 10 ENE 1015,8 50 0,0
10.08.2020 22:00:00 26,3 15,0 23,6 7 4 14 8 ENE 1015,5 48 0,0
10.08.2020 21:00:00 28,1 15,6 26,4 7 4 18 10 ENE 1014,8 49 0,0
10.08.2020 20:00:00 29,8 16,2 29,3 11 6 18 10 ENE 1014,4 41 0,0
10.08.2020 19:00:00 30,6 15,9 30,5 11 6 29 16 E 1014,1 46 0,0
10.08.2020 18:00:00 31,7 14,8 33,1 18 10 29 16 ENE 1014,1 42 0,0
10.08.2020 17:00:00 32,6 15,0 34,0 11 6 32 18 E 1014,4 44 0,0
10.08.2020 16:00:00 32,5 14,5 35,6 14 8 32 18 ESE 1015,0 41 0,0
10.08.2020 15:00:00 32,1 15,0 35,7 18 10 32 18 E 1015,4 43 0,0
10.08.2020 14:00:00 31,6 15,5 34,1 18 10 32 18 ENE 1015,5 44 0,0
10.08.2020 13:00:00 30,7 16,0 34,7 11 6 29 16 E 1015,8 40 0,0
10.08.2020 12:00:00 29,5 16,9 33,0 14 8 22 12 ESE 1016,1 41 0,0
10.08.2020 11:00:00 28,4 17,2 31,1 11 6 22 12 E 1015,9 29 0,0
10.08.2020 10:00:00 25,9 17,3 28,1 11 6 18 10 ENE 1016,0 32 0,0
10.08.2020 09:00:00 24,0 17,1 24,7 11 6 18 10 NE 1016,0 40 0,0
10.08.2020 08:00:00 21,6 17,1 20,1 7 4 14 8 NE 1016,1 25 0,0
10.08.2020 07:00:00 16,9 15,2 15,5 11 6 14 8 NE 1016,2 22 0,0
10.08.2020 06:00:00 15,7 15,0 12,9 0 0 7 4 N 1016,0 12 0,0
10.08.2020 05:00:00 16,6 15,4 13,1 4 2 7 4 NNE 1016,2 22 0,0
10.08.2020 04:00:00 16,5 14,7 13,8 4 2 7 4 N 1016,4 31 0,0
10.08.2020 03:00:00 17,1 14,7 14,1 4 2 7 4 WSW 1016,4 46 0,0
10.08.2020 02:00:00 18,9 14,9 16,1 7 4 18 10 E 1016,5 49 0,0
10.08.2020 01:00:00 17,9 15,1 14,5 4 2 18 10 NE 1016,7 43 0,0
10.08.2020 00:00:00 20,6 16,0 16,1 7 4 14 8 ENE 1016,7 49 0,0
09.08.2020 23:00:00 20,4 15,9 16,7 7 4 11 6 ENE 1016,6 50 0,0
09.08.2020 22:00:00 23,1 16,7 20,5 7 4 14 8 E 1016,9 49 0,0
09.08.2020 21:00:00 24,8 16,7 23,0 7 4 22 12 E 1016,7 48 0,0

tt = temperature
td = dewpoint
tt 5cm = temperature 5cm
ff = wind speed
fx = gusts
dd = wind direction
ppp = reduced air pressure
vv = visibility
rr = precipitation

Next stations